EJU98EA EGNT-LFPG

Flight info

Callsign EJU98EA
Flight time 1h 20m
Altitude 37000
Route GIRLI P18 GASKO P16 RIBEL UP16 CROFT UL612 WOD UM605 BIBAX
Aircraft A319/M-SDE2E3FGIJ1RWXYZ/LB1

Departure

Time 2026-04-30 09:54
Airport Newcastle International Airport (EGNT)

Arrival

Time 2026-04-30 11:15
Airport Charles de Gaulle International Airport (LFPG)
Time Latitude Longitude Altitude Speed Heading
2026-04-30 09:34 55.03732 -1.70671 268 ft 0 kts 184°
2026-04-30 09:48 55.03753 -1.70668 267 ft 4 kts 184°
2026-04-30 09:49 55.03780 -1.70667 267 ft 4 kts 169°
2026-04-30 09:49 55.03802 -1.70683 267 ft 4 kts 125°
2026-04-30 09:49 55.03808 -1.70704 267 ft 0 kts 96°
2026-04-30 09:51 55.03805 -1.70662 267 ft 8 kts 96°
2026-04-30 09:51 55.03801 -1.70543 267 ft 10 kts 93°
2026-04-30 09:51 55.03771 -1.70434 267 ft 11 kts 153°
2026-04-30 09:52 55.03693 -1.70436 267 ft 13 kts 183°
2026-04-30 09:52 55.03608 -1.70489 267 ft 14 kts 235°
2026-04-30 09:52 55.03572 -1.70631 267 ft 9 kts 214°
2026-04-30 09:52 55.03508 -1.70645 267 ft 9 kts 186°
2026-04-30 09:53 55.03442 -1.70643 268 ft 9 kts 173°
2026-04-30 09:53 55.03397 -1.70578 267 ft 10 kts 112°
2026-04-30 09:53 55.03408 -1.70446 266 ft 12 kts 66°
2026-04-30 09:53 55.03456 -1.70249 265 ft 39 kts 65°
2026-04-30 09:54 55.03681 -1.69398 256 ft 115 kts 65°
2026-04-30 09:54 55.04094 -1.67807 409 ft 155 kts 66°
2026-04-30 09:54 55.04550 -1.66096 1117 ft 154 kts 67°
2026-04-30 09:54 55.04997 -1.64412 1727 ft 161 kts 67°
2026-04-30 09:55 55.05496 -1.62518 2133 ft 182 kts 68°
2026-04-30 09:55 55.06057 -1.60391 2516 ft 203 kts 69°
2026-04-30 09:55 55.06622 -1.58078 3130 ft 209 kts 79°
2026-04-30 09:55 55.06542 -1.55620 3827 ft 204 kts 116°
2026-04-30 09:56 55.05651 -1.53753 4550 ft 208 kts 148°
2026-04-30 09:56 55.04174 -1.53108 4984 ft 236 kts 176°
2026-04-30 09:56 55.02493 -1.53122 5755 ft 245 kts 177°
2026-04-30 09:56 55.00770 -1.53158 6676 ft 249 kts 177°
2026-04-30 09:57 54.99023 -1.53204 7556 ft 255 kts 179°
2026-04-30 09:57 54.97248 -1.53755 7901 ft 264 kts 194°
2026-04-30 09:57 54.95587 -1.55194 7992 ft 270 kts 206°
2026-04-30 09:57 54.93980 -1.56883 8000 ft 269 kts 206°
2026-04-30 09:58 54.92375 -1.58551 8005 ft 269 kts 205°
2026-04-30 09:58 54.90765 -1.60211 8012 ft 269 kts 205°
2026-04-30 09:58 54.89152 -1.61869 8009 ft 269 kts 205°
2026-04-30 09:58 54.87540 -1.63526 8006 ft 270 kts 205°
2026-04-30 09:59 54.84311 -1.66842 8005 ft 270 kts 205°
2026-04-30 09:59 54.81085 -1.70147 8004 ft 270 kts 205°
2026-04-30 10:00 54.77852 -1.73455 7995 ft 269 kts 205°
2026-04-30 10:00 54.76236 -1.75107 7995 ft 270 kts 205°
2026-04-30 10:01 54.72991 -1.78404 7998 ft 270 kts 205°
2026-04-30 10:01 54.71327 -1.79867 7993 ft 266 kts 197°
2026-04-30 10:01 54.69559 -1.80788 8236 ft 268 kts 186°
2026-04-30 10:02 54.65894 -1.81923 10119 ft 270 kts 186°
2026-04-30 10:02 54.64023 -1.82528 10830 ft 282 kts 186°
2026-04-30 10:02 54.62019 -1.83169 11185 ft 303 kts 187°
2026-04-30 10:02 54.59915 -1.83843 11867 ft 311 kts 187°
2026-04-30 10:03 54.57773 -1.84533 12670 ft 315 kts 187°
2026-04-30 10:03 54.55604 -1.85227 13447 ft 319 kts 187°
2026-04-30 10:03 54.53408 -1.85923 14194 ft 323 kts 187°
2026-04-30 10:03 54.51208 -1.86618 14906 ft 328 kts 187°
2026-04-30 10:04 54.48923 -1.87338 15611 ft 331 kts 187°
2026-04-30 10:04 54.46676 -1.88047 16275 ft 335 kts 187°
2026-04-30 10:04 54.44367 -1.88770 16927 ft 339 kts 187°
2026-04-30 10:04 54.42038 -1.89498 17586 ft 343 kts 187°
2026-04-30 10:05 54.39681 -1.90235 18226 ft 346 kts 187°
2026-04-30 10:05 54.37300 -1.90980 18845 ft 350 kts 187°
2026-04-30 10:05 54.34891 -1.91735 19442 ft 353 kts 187°
2026-04-30 10:05 54.32461 -1.92493 20021 ft 358 kts 187°
2026-04-30 10:06 54.29993 -1.93258 20615 ft 362 kts 187°
2026-04-30 10:06 54.27509 -1.94028 21162 ft 365 kts 187°
2026-04-30 10:06 54.24999 -1.94879 21731 ft 371 kts 192°
2026-04-30 10:06 54.22572 -1.96491 22266 ft 379 kts 204°
2026-04-30 10:07 54.20364 -1.99012 22796 ft 387 kts 217°
2026-04-30 10:07 54.18378 -2.02170 23329 ft 392 kts 220°
2026-04-30 10:07 54.16385 -2.05386 23854 ft 395 kts 220°
2026-04-30 10:07 54.14379 -2.08607 24350 ft 398 kts 220°
2026-04-30 10:08 54.12350 -2.11852 24839 ft 401 kts 220°
2026-04-30 10:08 54.10311 -2.15111 25328 ft 403 kts 220°
2026-04-30 10:08 54.08260 -2.18384 25822 ft 405 kts 220°
2026-04-30 10:08 54.06205 -2.21657 26277 ft 406 kts 219°
2026-04-30 10:09 54.04133 -2.24951 26722 ft 408 kts 219°
2026-04-30 10:09 54.01935 -2.27983 27155 ft 406 kts 210°
2026-04-30 10:09 53.99479 -2.30310 27584 ft 403 kts 200°
2026-04-30 10:09 53.96863 -2.32043 28013 ft 404 kts 197°
2026-04-30 10:10 53.94227 -2.33727 28434 ft 406 kts 197°
2026-04-30 10:10 53.91581 -2.35422 28869 ft 407 kts 197°
2026-04-30 10:10 53.88930 -2.37124 29290 ft 408 kts 197°
2026-04-30 10:10 53.86270 -2.38831 29697 ft 410 kts 197°
2026-04-30 10:11 53.83602 -2.40544 30084 ft 411 kts 197°
2026-04-30 10:11 53.80921 -2.42265 30448 ft 413 kts 197°
2026-04-30 10:11 53.78229 -2.43994 30794 ft 415 kts 197°
2026-04-30 10:11 53.75524 -2.45729 31121 ft 417 kts 197°
2026-04-30 10:12 53.72807 -2.47463 31436 ft 419 kts 197°
2026-04-30 10:12 53.70074 -2.49204 31745 ft 421 kts 197°
2026-04-30 10:12 53.67324 -2.50855 32110 ft 419 kts 192°
2026-04-30 10:12 53.64481 -2.51758 32539 ft 413 kts 182°
2026-04-30 10:13 53.61630 -2.51771 32963 ft 408 kts 172°
2026-04-30 10:13 53.58853 -2.50930 33376 ft 405 kts 162°
2026-04-30 10:13 53.56220 -2.49302 33791 ft 402 kts 156°
2026-04-30 10:13 53.53651 -2.47457 34193 ft 401 kts 156°
2026-04-30 10:14 53.51087 -2.45636 34591 ft 401 kts 156°
2026-04-30 10:14 53.48518 -2.43826 34948 ft 400 kts 156°
2026-04-30 10:14 53.43371 -2.40210 35572 ft 401 kts 156°
2026-04-30 10:15 53.40793 -2.38400 35869 ft 402 kts 156°
2026-04-30 10:15 53.38215 -2.36592 36154 ft 402 kts 156°
2026-04-30 10:15 53.35636 -2.34783 36425 ft 402 kts 156°
2026-04-30 10:15 53.33052 -2.32973 36673 ft 404 kts 156°
2026-04-30 10:16 53.30462 -2.31160 36969 ft 403 kts 156°
2026-04-30 10:16 53.27885 -2.29358 37224 ft 400 kts 156°
2026-04-30 10:17 53.20314 -2.24071 37275 ft 393 kts 157°
2026-04-30 10:17 53.12752 -2.18828 37256 ft 392 kts 156°
2026-04-30 10:18 53.07714 -2.15327 37257 ft 392 kts 156°
2026-04-30 10:19 53.00166 -2.10101 37251 ft 392 kts 156°
2026-04-30 10:19 52.95131 -2.06642 37245 ft 391 kts 156°
2026-04-30 10:20 52.90942 -2.03772 37240 ft 392 kts 156°
2026-04-30 10:20 52.83348 -1.98576 37245 ft 392 kts 156°
2026-04-30 10:21 52.78336 -1.95152 37251 ft 392 kts 156°
2026-04-30 10:21 52.73294 -1.91718 37262 ft 392 kts 156°
2026-04-30 10:22 52.68249 -1.88284 37265 ft 393 kts 156°
2026-04-30 10:22 52.63196 -1.84860 37270 ft 392 kts 156°
2026-04-30 10:23 52.58145 -1.81448 37274 ft 392 kts 156°
2026-04-30 10:23 52.53090 -1.78055 37276 ft 392 kts 156°
2026-04-30 10:24 52.48040 -1.74671 37277 ft 392 kts 156°
2026-04-30 10:24 52.42991 -1.71280 37278 ft 392 kts 156°
2026-04-30 10:25 52.37935 -1.67910 37278 ft 392 kts 156°
2026-04-30 10:25 52.32931 -1.64369 37278 ft 391 kts 153°
2026-04-30 10:26 52.28078 -1.60333 37274 ft 391 kts 151°
2026-04-30 10:26 52.23251 -1.56217 37272 ft 391 kts 152°
2026-04-30 10:27 52.18400 -1.52197 37267 ft 391 kts 152°
2026-04-30 10:27 52.13533 -1.48242 37261 ft 391 kts 153°
2026-04-30 10:28 52.08663 -1.44298 37255 ft 391 kts 153°
2026-04-30 10:28 52.03793 -1.40354 37251 ft 391 kts 153°
2026-04-30 10:29 51.98919 -1.36404 37250 ft 392 kts 152°
2026-04-30 10:29 51.94037 -1.32456 37247 ft 392 kts 152°
2026-04-30 10:30 51.89150 -1.28514 37245 ft 393 kts 152°
2026-04-30 10:30 51.84259 -1.24582 37244 ft 393 kts 153°
2026-04-30 10:31 51.79363 -1.20663 37244 ft 393 kts 153°
2026-04-30 10:31 51.74466 -1.16746 37241 ft 393 kts 153°
2026-04-30 10:32 51.69564 -1.12836 37233 ft 393 kts 153°
2026-04-30 10:32 51.64655 -1.08944 37226 ft 393 kts 153°
2026-04-30 10:33 51.59942 -1.04629 37224 ft 392 kts 144°
2026-04-30 10:33 51.55498 -0.99530 37217 ft 393 kts 144°
2026-04-30 10:34 51.51035 -0.94438 37212 ft 394 kts 144°
2026-04-30 10:34 51.46566 -0.89354 37212 ft 394 kts 144°
2026-04-30 10:35 51.42409 -0.83645 37213 ft 394 kts 137°
2026-04-30 10:35 51.38376 -0.77697 37216 ft 394 kts 137°
2026-04-30 10:36 51.34323 -0.71760 37215 ft 395 kts 137°
2026-04-30 10:36 51.30274 -0.65834 37213 ft 395 kts 137°
2026-04-30 10:37 51.26215 -0.59903 37214 ft 395 kts 137°
2026-04-30 10:37 51.22154 -0.53984 37216 ft 396 kts 137°
2026-04-30 10:38 51.18087 -0.48076 37216 ft 396 kts 137°
2026-04-30 10:38 51.14014 -0.42170 37220 ft 396 kts 137°
2026-04-30 10:39 51.09940 -0.36274 37225 ft 396 kts 137°
2026-04-30 10:39 51.05859 -0.30371 37228 ft 397 kts 137°
2026-04-30 10:40 51.01774 -0.24484 37232 ft 397 kts 138°
2026-04-30 10:40 50.97680 -0.18602 37232 ft 397 kts 138°
2026-04-30 10:41 50.93581 -0.12744 37229 ft 397 kts 138°
2026-04-30 10:41 50.89480 -0.06891 37226 ft 397 kts 138°
2026-04-30 10:42 50.85376 -0.01038 37225 ft 397 kts 138°
2026-04-30 10:42 50.81258 0.04810 37222 ft 398 kts 137°
2026-04-30 10:43 50.77141 0.10645 37216 ft 398 kts 137°
2026-04-30 10:43 50.72951 0.16368 37215 ft 398 kts 139°
2026-04-30 10:44 50.68631 0.21843 37213 ft 399 kts 140°
2026-04-30 10:44 50.64285 0.27285 37214 ft 399 kts 140°
2026-04-30 10:45 50.59963 0.32766 37220 ft 399 kts 140°
2026-04-30 10:45 50.55648 0.38273 37222 ft 399 kts 140°
2026-04-30 10:46 50.51322 0.43770 37225 ft 399 kts 140°
2026-04-30 10:46 50.46993 0.49245 37224 ft 399 kts 140°
2026-04-30 10:47 50.42655 0.54721 37208 ft 401 kts 140°
2026-04-30 10:47 50.38306 0.60200 37206 ft 402 kts 140°
2026-04-30 10:48 50.36116 0.62944 37078 ft 403 kts 140°
2026-04-30 10:48 50.33922 0.65693 36119 ft 404 kts 140°
2026-04-30 10:48 50.31733 0.68440 34983 ft 407 kts 140°
2026-04-30 10:48 50.29508 0.71237 33807 ft 411 kts 139°
2026-04-30 10:49 50.27288 0.74023 32906 ft 407 kts 139°
2026-04-30 10:49 50.25100 0.76759 32125 ft 399 kts 139°
2026-04-30 10:49 50.22963 0.79421 31619 ft 386 kts 140°
2026-04-30 10:49 50.20897 0.81991 31146 ft 373 kts 139°
2026-04-30 10:50 50.18905 0.84468 30704 ft 361 kts 139°
2026-04-30 10:50 50.16974 0.86870 30275 ft 349 kts 139°
2026-04-30 10:50 50.15094 0.89209 29717 ft 343 kts 139°
2026-04-30 10:50 50.13262 0.91488 29084 ft 340 kts 139°
2026-04-30 10:51 50.11422 0.93775 28416 ft 337 kts 139°
2026-04-30 10:51 50.09602 0.96029 27859 ft 330 kts 139°
2026-04-30 10:51 50.07835 0.98209 27384 ft 321 kts 139°
2026-04-30 10:51 50.06044 1.00346 26681 ft 320 kts 143°
2026-04-30 10:52 50.04099 1.02037 26012 ft 320 kts 151°
2026-04-30 10:52 50.02125 1.03517 25445 ft 315 kts 150°
2026-04-30 10:52 50.00184 1.04976 25331 ft 311 kts 150°
2026-04-30 10:52 49.98232 1.06455 25253 ft 313 kts 150°
2026-04-30 10:53 49.96269 1.07940 25187 ft 314 kts 150°
2026-04-30 10:53 49.94302 1.09424 25115 ft 314 kts 150°
2026-04-30 10:53 49.92335 1.10902 25048 ft 314 kts 150°
2026-04-30 10:53 49.90366 1.12381 24797 ft 314 kts 150°
2026-04-30 10:54 49.88407 1.13851 24395 ft 313 kts 150°
2026-04-30 10:54 49.86449 1.15321 23968 ft 311 kts 150°
2026-04-30 10:54 49.84505 1.16778 23545 ft 311 kts 150°
2026-04-30 10:54 49.82560 1.18230 23129 ft 310 kts 150°
2026-04-30 10:55 49.80626 1.19670 22724 ft 308 kts 150°
2026-04-30 10:55 49.78698 1.21110 22307 ft 307 kts 150°
2026-04-30 10:55 49.76779 1.22545 21905 ft 306 kts 150°
2026-04-30 10:55 49.74859 1.23976 21508 ft 305 kts 151°
2026-04-30 10:56 49.72953 1.25393 21111 ft 304 kts 151°
2026-04-30 10:56 49.71048 1.26807 20714 ft 303 kts 151°
2026-04-30 10:56 49.69147 1.28214 20320 ft 302 kts 151°
2026-04-30 10:56 49.67256 1.29613 19925 ft 301 kts 151°
2026-04-30 10:57 49.65368 1.31012 19539 ft 301 kts 151°
2026-04-30 10:57 49.63482 1.32411 19143 ft 300 kts 151°
2026-04-30 10:57 49.61604 1.33803 18753 ft 299 kts 151°
2026-04-30 10:57 49.59731 1.35187 18368 ft 299 kts 151°
2026-04-30 10:58 49.57859 1.36571 17983 ft 298 kts 151°
2026-04-30 10:58 49.55991 1.37957 17608 ft 298 kts 151°
2026-04-30 10:58 49.54126 1.39339 17220 ft 297 kts 151°
2026-04-30 10:58 49.52260 1.40716 16856 ft 297 kts 152°
2026-04-30 10:59 49.50397 1.42088 16482 ft 297 kts 152°
2026-04-30 10:59 49.48529 1.43462 16110 ft 298 kts 152°
2026-04-30 10:59 49.46660 1.44838 15740 ft 297 kts 152°
2026-04-30 10:59 49.44798 1.46208 15374 ft 296 kts 152°
2026-04-30 11:00 49.42936 1.47574 15010 ft 296 kts 152°
2026-04-30 11:00 49.41079 1.48933 14643 ft 296 kts 152°
2026-04-30 11:00 49.39221 1.50291 14283 ft 295 kts 152°
2026-04-30 11:00 49.37367 1.51645 13911 ft 295 kts 152°
2026-04-30 11:01 49.35519 1.52998 13541 ft 294 kts 152°
2026-04-30 11:01 49.33670 1.54352 13173 ft 294 kts 152°
2026-04-30 11:01 49.31944 1.55982 12800 ft 291 kts 137°
2026-04-30 11:01 49.30647 1.58327 12432 ft 288 kts 120°
2026-04-30 11:02 49.29903 1.61121 12057 ft 288 kts 103°
2026-04-30 11:02 49.29685 1.64166 11670 ft 288 kts 95°
2026-04-30 11:02 49.29553 1.67225 11285 ft 287 kts 95°
2026-04-30 11:02 49.29418 1.70276 10890 ft 287 kts 95°
2026-04-30 11:03 49.29281 1.73316 10493 ft 285 kts 96°
2026-04-30 11:03 49.28868 1.76259 10114 ft 282 kts 111°
2026-04-30 11:03 49.28005 1.78909 9862 ft 276 kts 119°
2026-04-30 11:04 49.26143 1.83948 9501 ft 271 kts 119°
2026-04-30 11:04 49.25223 1.86450 9294 ft 269 kts 119°
2026-04-30 11:04 49.24309 1.88938 9082 ft 268 kts 119°
2026-04-30 11:04 49.23691 1.90617 8940 ft 267 kts 118°
2026-04-30 11:05 49.22782 1.93087 8731 ft 267 kts 119°
2026-04-30 11:05 49.21885 1.95520 8532 ft 266 kts 119°
2026-04-30 11:05 49.20976 1.97979 8316 ft 264 kts 119°
2026-04-30 11:05 49.20070 2.00423 8101 ft 263 kts 119°
2026-04-30 11:06 49.19155 2.02887 7895 ft 262 kts 119°
2026-04-30 11:06 49.18258 2.05303 7696 ft 262 kts 119°
2026-04-30 11:06 49.17360 2.07722 7487 ft 261 kts 119°
2026-04-30 11:06 49.16304 2.09967 7286 ft 261 kts 133°
2026-04-30 11:07 49.14851 2.11641 6948 ft 265 kts 149°
2026-04-30 11:07 49.13089 2.12579 6421 ft 269 kts 163°
2026-04-30 11:07 49.11260 2.13270 5813 ft 274 kts 162°
2026-04-30 11:07 49.09434 2.13988 5324 ft 266 kts 162°
2026-04-30 11:08 49.07704 2.14670 5142 ft 248 kts 161°
2026-04-30 11:08 49.06093 2.15306 5012 ft 236 kts 161°
2026-04-30 11:08 49.04538 2.15917 4897 ft 225 kts 161°
2026-04-30 11:08 49.03114 2.16719 4767 ft 211 kts 146°
2026-04-30 11:09 49.01997 2.18079 4632 ft 202 kts 129°
2026-04-30 11:09 49.01244 2.19816 4475 ft 193 kts 113°
2026-04-30 11:09 49.00874 2.21749 4269 ft 189 kts 98°
2026-04-30 11:09 49.00874 2.23739 4058 ft 189 kts 87°
2026-04-30 11:10 49.00990 2.25733 3806 ft 189 kts 86°
2026-04-30 11:10 49.01102 2.27692 3574 ft 183 kts 87°
2026-04-30 11:10 49.01209 2.29588 3324 ft 176 kts 87°
2026-04-30 11:10 49.01311 2.31413 3097 ft 172 kts 88°
2026-04-30 11:11 49.01410 2.33192 2867 ft 164 kts 86°
2026-04-30 11:11 49.01504 2.34870 2660 ft 153 kts 86°
2026-04-30 11:11 49.01591 2.36428 2457 ft 144 kts 86°
2026-04-30 11:11 49.01672 2.37887 2272 ft 134 kts 86°
2026-04-30 11:12 49.01749 2.39277 2111 ft 132 kts 85°
2026-04-30 11:12 49.01825 2.40660 1922 ft 129 kts 84°
2026-04-30 11:12 49.01899 2.42015 1744 ft 126 kts 84°
2026-04-30 11:12 49.01974 2.43365 1591 ft 129 kts 84°
2026-04-30 11:13 49.02047 2.44708 1408 ft 126 kts 83°
2026-04-30 11:13 49.02120 2.46042 1257 ft 127 kts 84°
2026-04-30 11:13 49.02192 2.47382 1084 ft 127 kts 86°
2026-04-30 11:13 49.02266 2.48720 914 ft 127 kts 86°
2026-04-30 11:14 49.02339 2.50065 741 ft 127 kts 87°
2026-04-30 11:14 49.02410 2.51413 573 ft 128 kts 85°
2026-04-30 11:14 49.02490 2.52765 390 ft 128 kts 86°
2026-04-30 11:14 49.02556 2.54038 354 ft 104 kts 85°
2026-04-30 11:15 49.02602 2.54876 361 ft 49 kts 85°
2026-04-30 11:15 49.02598 2.55175 356 ft 24 kts 97°
2026-04-30 11:15 49.02560 2.55339 359 ft 12 kts 118°
2026-04-30 11:15 49.02530 2.55425 358 ft 8 kts 117°
2026-04-30 11:16 49.02504 2.55504 361 ft 9 kts 117°
2026-04-30 11:16 49.02499 2.55519 357 ft 1 kts 117°
2026-04-30 11:16 49.02494 2.55535 355 ft 2 kts 117°
2026-04-30 11:16 49.02485 2.55562 359 ft 3 kts 116°
2026-04-30 11:17 49.02472 2.55600 355 ft 4 kts 119°
2026-04-30 11:17 49.02470 2.55658 361 ft 9 kts 88°
2026-04-30 11:17 49.02476 2.55778 358 ft 13 kts 85°
2026-04-30 11:17 49.02467 2.55912 358 ft 13 kts 116°
2026-04-30 11:18 49.02387 2.55957 360 ft 13 kts 174°
2026-04-30 11:18 49.02187 2.55980 360 ft 14 kts 176°
2026-04-30 11:18 49.02105 2.55952 355 ft 12 kts 225°
2026-04-30 11:19 49.02080 2.55814 360 ft 15 kts 266°
2026-04-30 11:19 49.02055 2.55682 357 ft 12 kts 222°
2026-04-30 11:19 49.01974 2.55668 359 ft 12 kts 176°
2026-04-30 11:19 49.01897 2.55632 359 ft 13 kts 244°
2026-04-30 11:20 49.01885 2.55493 356 ft 14 kts 266°
2026-04-30 11:20 49.01877 2.55358 361 ft 11 kts 265°
2026-04-30 11:20 49.01872 2.55240 354 ft 12 kts 267°
2026-04-30 11:20 49.01847 2.55139 357 ft 9 kts 204°
2026-04-30 11:21 49.01782 2.55133 363 ft 11 kts 177°
2026-04-30 11:21 49.01682 2.55145 360 ft 17 kts 175°
2026-04-30 11:21 49.01573 2.55155 356 ft 14 kts 177°
2026-04-30 11:21 49.01483 2.55169 358 ft 12 kts 171°
2026-04-30 11:22 49.01397 2.55191 355 ft 13 kts 166°
2026-04-30 11:22 49.01307 2.55218 360 ft 14 kts 176°
2026-04-30 11:22 49.01231 2.55181 356 ft 11 kts 218°
2026-04-30 11:22 49.01159 2.55163 355 ft 12 kts 172°
2026-04-30 11:23 49.01071 2.55200 356 ft 15 kts 164°
2026-04-30 11:23 49.00966 2.55246 361 ft 16 kts 162°
2026-04-30 11:23 49.00776 2.55328 358 ft 12 kts 164°
2026-04-30 11:24 49.00686 2.55367 358 ft 16 kts 164°
2026-04-30 11:24 49.00572 2.55429 359 ft 18 kts 139°
2026-04-30 11:24 49.00556 2.55616 354 ft 20 kts 84°
2026-04-30 11:25 49.00568 2.55997 357 ft 15 kts 78°
2026-04-30 11:25 49.00589 2.56135 359 ft 12 kts 87°
2026-04-30 11:25 49.00531 2.56181 357 ft 0 kts 165°
2026-04-30 11:26 49.00530 2.56181 354 ft 0 kts 165°